Satellite: MET-3/5
Catalog number: 21655
Epoch time:      10063.49504657
Element set:     751
Inclination:      082.5586 deg
RA of node:       022.5944 deg
Eccentricity:    0.0012221
Arg of perigee:   249.7815 deg
Mean anomaly:     110.1958 deg
Mean motion:   13.17019924 rev/day
Decay rate:        5.1e-07 rev/day^2
Epoch rev:           89189
Checksum:              308

Satellite: MET-2/21
Catalog number: 22782
Epoch time:      10063.29214336
Element set:     712
Inclination:      082.5521 deg
RA of node:       335.6684 deg
Eccentricity:    0.0021972
Arg of perigee:   341.0833 deg
Mean anomaly:     018.9512 deg
Mean motion:   13.83643974 rev/day
Decay rate:        3.0e-07 rev/day^2
Epoch rev:           83357
Checksum:              291

Satellite: OKEAN-4
Catalog number: 23317
Epoch time:      10061.83581937
Element set:     167
Inclination:      082.5374 deg
RA of node:       093.1284 deg
Eccentricity:    0.0020697
Arg of perigee:   229.7326 deg
Mean anomaly:     130.2075 deg
Mean motion:   14.82774100 rev/day
Decay rate:        9.6e-07 rev/day^2
Epoch rev:           83069
Checksum:              301

Satellite: NOAA-14
Catalog number: 23455
Epoch time:      10063.40006384
Element set:     970
Inclination:      098.8841 deg
RA of node:       144.8540 deg
Eccentricity:    0.0009516
Arg of perigee:   168.2900 deg
Mean anomaly:     191.8517 deg
Mean motion:   14.13779797 rev/day
Decay rate:       -1.5e-07 rev/day^2
Epoch rev:           78269
Checksum:              323

Satellite: NOAA-15
Catalog number: 25338
Epoch time:      10063.52002763
Element set:     289
Inclination:      098.6124 deg
RA of node:       052.3631 deg
Eccentricity:    0.0011027
Arg of perigee:   025.0624 deg
Mean anomaly:     335.1097 deg
Mean motion:   14.24808943 rev/day
Decay rate:      -1.64e-06 rev/day^2
Epoch rev:           61384
Checksum:              276

Satellite: RESURS
Catalog number: 25394
Epoch time:      10063.10571009
Element set:     445
Inclination:      098.3139 deg
RA of node:       086.8680 deg
Eccentricity:    0.0001773
Arg of perigee:   137.2657 deg
Mean anomaly:     222.8670 deg
Mean motion:   14.24194337 rev/day
Decay rate:        3.1e-07 rev/day^2
Epoch rev:           60539
Checksum:              289

Satellite: FENGYUN1
Catalog number: 25730
Epoch time:      10063.43307986
Element set:     987
Inclination:      098.7775 deg
RA of node:       031.1467 deg
Eccentricity:    0.0023218
Arg of perigee:   200.7394 deg
Mean anomaly:     159.2810 deg
Mean motion:   14.08177607 rev/day
Decay rate:       2.86e-06 rev/day^2
Epoch rev:           55694
Checksum:              319

Satellite: OKEAN-0
Catalog number: 25860
Epoch time:      10063.50959451
Element set:     929
Inclination:      097.8208 deg
RA of node:       039.8338 deg
Eccentricity:    0.0001871
Arg of perigee:   071.1004 deg
Mean anomaly:     289.0411 deg
Mean motion:   14.73618503 rev/day
Decay rate:        5.9e-07 rev/day^2
Epoch rev:           57148
Checksum:              300

Satellite: NOAA-16
Catalog number: 26536
Epoch time:      10063.53550285
Element set:     766
Inclination:      099.1758 deg
RA of node:       078.5097 deg
Eccentricity:    0.0009705
Arg of perigee:   271.5419 deg
Mean anomaly:     088.4655 deg
Mean motion:   14.12547221 rev/day
Decay rate:      -1.33e-06 rev/day^2
Epoch rev:           48705
Checksum:              323

Satellite: NOAA-17
Catalog number: 27453
Epoch time:      10063.31282362
Element set:     771
Inclination:      098.4451 deg
RA of node:       117.9148 deg
Eccentricity:    0.0012725
Arg of perigee:   085.2010 deg
Mean anomaly:     275.0620 deg
Mean motion:   14.24136907 rev/day
Decay rate:       2.40e-06 rev/day^2
Epoch rev:           39977
Checksum:              286

Satellite: NOAA-18
Catalog number: 28654
Epoch time:      10063.30696064
Element set:     257
Inclination:      098.9413 deg
RA of node:       009.9302 deg
Eccentricity:    0.0014375
Arg of perigee:   353.0355 deg
Mean anomaly:     007.0623 deg
Mean motion:   14.11333129 rev/day
Decay rate:       -1.0e-07 rev/day^2
Epoch rev:           24664
Checksum:              274

Satellite: NOAA-19
Catalog number: 33591
Epoch time:      10063.34307249
Element set:     458
Inclination:      098.7789 deg
RA of node:       007.7444 deg
Eccentricity:    0.0013358
Arg of perigee:   224.0313 deg
Mean anomaly:     135.9807 deg
Mean motion:   14.11028924 rev/day
Decay rate:       -3.3e-07 rev/day^2
Epoch rev:            5512
Checksum:              295

/EX
SB KEPS @ AMSAT  $ORB10064.M
Orbital Elements  10064.MISC

HR AMSAT ORBITAL ELEMENTS FOR MANNED AND MISCELLANEOUS SATELLITES
FROM WA5QGD FORT WORTH,TX March 5, 2010
Send Subscribe/unsubscribe to KEPS at http://www.amsat.org/mailman/listinfo/kep
BID: ORB10064.M
TO ALL RADIO AMATEURS BT

Satellite: HUBBLE
Catalog number: 20580
Epoch time:      10063.58635383
Element set:     531
Inclination:      028.4681 deg
RA of node:       202.7003 deg
Eccentricity:    0.0003608
Arg of perigee:   173.2518 deg
Mean anomaly:     186.8077 deg
Mean motion:   15.00910894 rev/day
Decay rate:       4.94e-06 rev/day^2
Epoch rev:           88902
Checksum:              289

